View from above orbital plane
|
View from above satellite
|
Ground track
|
The orbit data is extracted from the following two-line orbital elements,
1 32958U 08026A 21058.46024965 .00000002 00000-0 21018-4 0 9993
2 32958 98.4377 37.3633 0008056 324.5383 35.5257 14.18648440660873
Epoch (UTC): | 27 February 2021 11:02:45 |
Eccentricity: | 0.0008056 |
inclination: | 98.4377° |
perigee height: | 824 km |
apogee height: | 836 km |
right ascension of ascending node: | 37.3633° |
argument of perigee: | 324.5383° |
revolutions per day: | 14.18648440 |
mean anomaly at epoch: | 35.5257° |
orbit number at epoch: | 66087 |
The dashed part of the orbit path shows where the satellite is in the earth's shadow,
|
|